Regional Weather Roundup
Issued by NWS

Home | Current Version | Previous Version | Text Only | Print | Product List | Glossary On
Versions: 1 2 3 4 5 6 7 8 9 10 11 12 13 14 15 16 17 18 19 20 21 22 23 24 25 26 27 28 29 30 31 32 33 34 35 36 37 38 39 40 41 42 43 44 45 46 47 48 49 50
205
ASUS44 KJAN 241010
RWRMS

MISSISSIPPI HOURLY WEATHER ROUNDUP
NATIONAL WEATHER SERVICE JACKSON MS
500 AM CDT TUE MAY 24 2016

NOTE: "FAIR: INDICATES FEW OR NO CLOUDS BELOW 12,000 FEET WITH NO
SIGNIFICANT WEATHER AND/OR OBSTRUCTIONS TO VISIBILITY.

MSZ001>002-007>008-010>013-018>021-025>028-034>036-241100-
NORTHWEST MISSISSIPPI

CITY           SKY/WX    TMP DP  RH WIND       PRES   REMARKS
BATESVILLE     FAIR      60  58  94 CALM      30.02R
CLARKSDALE     CLEAR     66  59  77 SE6       30.00S
CLEVELAND      FAIR      67  59  75 SE6       29.99S
GREENWOOD      PTCLDY    63  57  81 CALM      30.01R
GREENVILLE     CLEAR     64  55  72 SE6       29.99R
OLIVE BRANCH   PTCLDY    64  59  82 S3        30.00F
OXFORD         FAIR      64  54  68 SE5       30.04R
TUNICA         SUNNY     63  55  77 S3        30.00S
WINONA         FAIR      61  59  93 CALM      30.03R
$$

MSZ003>006-009-014>017-022>024-029>033-037>039-241100-
NORTHEAST MISSISSIPPI

CITY           SKY/WX    TMP DP  RH WIND       PRES   REMARKS
COLUMBUS AFB   CLOUDY    58  55  91 CALM      30.03R
GOLDN TRIANGLE CLOUDY    64  57  77 CALM      30.03S
STARKVILLE     FAIR      59  55  88 CALM      30.03R
TUPELO         CLOUDY    61  55  81 CALM      30.03R
$$

MSZ040-058-241100-
CENTRAL MISSISSIPPI

CITY           SKY/WX    TMP DP  RH WIND       PRES   REMARKS
JACKSON INTL   CLEAR     63  58  83 SE3       30.03R
JACKSON HAWKNS CLEAR     63  58  83 E3        30.03R
MADISON        FAIR      61  57  88 CALM      30.03R
MERIDIAN KEY   PTCLDY    58  56  93 CALM      30.05R
MERIDIAN NAS   CLOUDY    59  54  83 CALM      30.05R
VICKSBURG TVR  CLEAR     65  61  87 S3        30.01R
VICKSBURG VKS  SUNNY     68  63  83 S7        30.01S
$$

MSZ059>079-241100-
SOUTH MISSISSIPPI

CITY           SKY/WX    TMP DP  RH WIND       PRES   REMARKS
BROOKHAVEN     FAIR     N/A N/A N/A CALM      30.03F
COLUMBIA       FAIR      57  57 100 CALM      30.07S
HATTIESBURG    CLEAR     61  57  87 CALM      30.05R
MCCOMB         CLEAR     63  59  87 CALM      30.03R
NATCHEZ        CLEAR     66  61  82 S3        30.01R
PINE BELT      CLEAR     57  54  88 CALM      30.06R
$$

MSZ080>082-241100-
COASTAL MISSISSIPPI

CITY           SKY/WX    TMP DP  RH WIND       PRES   REMARKS
BILOXI         PTCLDY    64  63  96 NE5       30.02R
PASCAGOULA     CLEAR     57  57 100 CALM      30.03R FOG
GULFPORT       PTCLDY    63  60  90 CALM      30.01S
$$




USA.gov is the U.S. government's official web portal to all federal, state and local government web resources and services.